Location: Cisewo
(53.3833°N, 14.9000°E)
Time: 12:47:15
(UTC+00:00)

ATLAS 5 CENTAUR R/B - Pass Details

Date: 18 April 2021
Orbit: 516 x 1141 km, 63.3° (Epoch: 02 May)

Event Time Altitude Azimuth Distance (km) Brightness Sun altitude
Rises 21:04:25 0° 290° (WNW) 2,873 5.8 -21.0°
Reaches altitude 10° 21:06:52 10° 303° (WNW) 2,052 5.1 -21.1°
Maximum altitude 21:10:48 26° 1° (N) 1,387 3.9 -21.4°
Drops below altitude 10° 21:15:20 10° 58° (ENE) 2,381 4.6 -21.8°
Sets 21:18:23 0° 70° (ENE) 3,438 5.3 -22.0°
